Regional Weather Roundup
Issued by NWS

Home | Current Version | Previous Version | Graphics & Text | Print | Product List | Glossary On
Versions: 1 2 3 4 5 6 7 8 9 10 11 12 13 14 15 16 17 18 19 20 21 22 23 24 25 26 27 28 29 30 31 32 33 34 35 36 37 38 39 40 41 42 43 44 45 46 47 48 49 50
000
ASUS43 KLOT 242300
RWRIL

ILLINOIS REGIONAL WEATHER ROUNDUP
NATIONAL WEATHER SERVICE CHICAGO/ROMEOVILLE IL
600 PM CDT FRI OCT 24 2014

NOTE: "FAIR" INDICATES FEW OR NO CLOUDS BELOW 12,000 FEET WITH NO
SIGNIFICANT WEATHER AND/OR OBSTRUCTIONS TO VISIBILITY.

* THESE STATIONS ARE NOT UNDER NWS QUALITY CONTROL. THEY ALSO MAY NOT
  REPORT WEATHER SUCH AS PRECIPITATION OR FOG.

ILZ001-002-007-009-015-016-024-250000-
NORTHWEST ILLINOIS

CITY           SKY/WX    TMP DP  RH WIND       PRES   REMARKS
MOLINE         CLOUDY    67  53  61 S8        29.90F
STERLING*      MOCLDY    63  45  51 S6        29.93F
$$

ILZ003-004-008-010-011-017-018-250000-
NORTH CENTRAL ILLINOIS

CITY           SKY/WX    TMP DP  RH WIND       PRES   REMARKS
ROCKFORD       MOCLDY    58  48  69 S9        29.95F
$$

ILZ005-006-012>014-019>023-250000-
NORTHEAST ILLINOIS

CITY           SKY/WX    TMP DP  RH WIND       PRES   REMARKS
CHICAGO-OHARE  MOCLDY    63  45  51 S8        29.94F
CHICAGO-MIDWAY MOCLDY    65  46  50 SW6       29.95F
AURORA         PTCLDY    62  45  53 S5        29.96S
WAUKEGAN       PTCLDY    53  49  86 CALM      29.94F FOG
DUPAGE AIRPORT PTCLDY    60  47  61 S3        29.95S
WHEELING       PTCLDY    65  45  48 S6        29.96S
NORTHERLY ISL    N/A     65  46  50 S3          N/A
$$

LMZ740>746-250000-
SOUTHERN LAKE MICHIGAN

STATION/POSITION SKY/WX   TEMP    WIND        PRES    VSBY  WAVE
                          AIR SEA DIR/SP/G                  HT/PER
                          (F)     (DEG/KT/KT) (MB)    (MI)  (FT/S)
SOUTHERN BUOY              53 54  180/  4/  6 1015.0F
WAUKEGAN HARBOR            54        CALM       N/A
HARRISON CRIB              60     160/ 11/ 13   N/A
BURNHAM HARBOR             65     200/  6/  9   N/A
CALUMET HARBOR             65     200/  5/  6 1013.5F
MICHIGAN CITY              57      50/  3/  3   N/A
$$

ILZ025>027-034>036-040-047-049-050-058-095>099-250000-
WEST-CENTRAL ILLINOIS

CITY           SKY/WX    TMP DP  RH WIND       PRES   REMARKS
QUINCY         PTCLDY    67  55  65 S8        29.95F
$$

ILZ028>032-037-038-041>044-048-051>054-059>061-250000-
CENTRAL ILLINOIS

CITY           SKY/WX    TMP DP  RH WIND       PRES   REMARKS
DECATUR        CLEAR     60  54  80 S7        30.01F
PEORIA         MOCLDY    63  51  65 SE5       29.97S
SPRINGFIELD    PTCLDY    65  51  60 S6        29.99S
TAYLORVILLE    NOT AVBL
$$

ILZ033-039-045-046-055>057-062-063-250000-
EAST-CENTRAL ILLINOIS

CITY           SKY/WX    TMP DP  RH WIND       PRES   REMARKS
CHAMPAIGN      PTCLDY    60  54  80 SW8       30.01S
MATTOON        PTCLDY    62  53  72 W5        30.02S
$$

ILZ079-100>102-250000-
SOUTHWEST ILLINOIS

CITY           SKY/WX    TMP DP  RH WIND       PRES   REMARKS
BELLEVILLE     PTCLDY    66  51  59 S2        30.00F
CAHOKIA*       PTCLDY    69  51  52 SE5       30.00F
$$

ILZ064>066-069>071-074>076-080>082-084>086-088>090-092>094-250000-
SOUTH-CENTRAL ILLINOIS

CITY           SKY/WX    TMP DP  RH WIND       PRES   REMARKS
CARBONDALE     PTCLDY    65  51  60 S3        30.04F
MARION         PTCLDY    66  54  63 SW6       30.05F
MT. VERNON     CLEAR     61  50  67 CALM      30.05S
$$

ILZ067-068-072-073-078-083-087-091-250000-
SOUTHEAST ILLINOIS

CITY           SKY/WX    TMP DP  RH WIND       PRES   REMARKS
LAWRENCEVILLE  PTCLDY    65  52  62 SW5       30.03S
$$

ABBREVIATIONS USED IN REMARKS
   TC - TEMPERATURE IN CELSIUS
  WCI - WIND CHILL INDEX
   HX - HEAT INDEX
  VSB - VISIBILITY
$$




USA.gov is the U.S. government's official web portal to all federal, state and local government web resources and services.